| time (UTC) | temp F | wind direction | speed knots | gust knots | rain 1hr in | rain 24hr in | rain mn in | humidity % | barometer mb |
| 20260510224552 | 61 | 348 | 0.0 | 0.9 | 0.04 | 0.05 | 0.05 | 88 | 1014.4 |
| 20260510223054 | 62 | 325 | 0.0 | 3.5 | 0.02 | 0.03 | 0.03 | 86 | 1014.4 |
| 20260510221548 | 62 | 289 | 0.0 | 1.7 | 0.00 | 0.01 | 0.01 | 83 | 1013.8 |
| 20260510220045 | 63 | 38 | 0.0 | 1.7 | 0.00 | 0.01 | 0.01 | 82 | 1013.7 |
| 20260510214553 | 63 | 257 | 0.0 | 0.9 | 0.00 | 0.01 | 0.01 | 81 | 1013.7 |
| 20260510213046 | 63 | 346 | 0.0 | 2.6 | 0.00 | 0.01 | 0.01 | 80 | 1013.5 |
| 20260510211543 | 64 | 30 | 0.0 | 2.6 | 0.00 | 0.01 | 0.01 | 77 | 1013.5 |
| 20260510210043 | 65 | 293 | 0.9 | 3.5 | 0.00 | 0.01 | 0.01 | 74 | 1013.4 |
| 20260510204546 | 66 | 270 | 0.0 | 3.5 | 0.00 | 0.01 | 0.01 | 73 | 1013.4 |
| 20260510203043 | 67 | 323 | 0.9 | 4.3 | 0.00 | 0.01 | 0.01 | 69 | 1013.0 |
| 20260510201544 | 68 | 262 | 0.9 | 7.0 | 0.00 | 0.01 | 0.01 | 67 | 1013.3 |
| 20260510200040 | 70 | 260 | 0.0 | 6.1 | 0.00 | 0.01 | 0.01 | 63 | 1013.2 |
| 20260510194539 | 71 | 248 | 1.7 | 7.8 | 0.00 | 0.03 | 0.01 | 60 | 1013.3 |
| 20260510193041 | 72 | 221 | 1.7 | 7.8 | 0.00 | 0.03 | 0.01 | 58 | 1013.1 |
| 20260510191538 | 73 | 348 | 0.0 | 4.3 | 0.00 | 0.03 | 0.01 | 60 | 1013.2 |
| 20260510190038 | 72 | 286 | 0.9 | 7.8 | 0.00 | 0.03 | 0.01 | 61 | 1013.1 |
| 20260510184541 | 73 | 304 | 0.9 | 5.2 | 0.00 | 0.08 | 0.01 | 59 | 1013.2 |
| 20260510183038 | 72 | 246 | 0.9 | 7.0 | 0.00 | 0.08 | 0.01 | 62 | 1013.2 |
| 20260510181559 | 71 | 275 | 0.9 | 8.7 | 0.00 | 0.08 | 0.01 | 65 | 1013.4 |
| 20260510180054 | 71 | 318 | 1.7 | 5.2 | 0.00 | 0.08 | 0.01 | 63 | 1013.6 |
| 20260510174534 | 71 | 286 | 4.3 | 11.3 | 0.00 | 0.11 | 0.01 | 63 | 1013.6 |
| 20260510173033 | 72 | 257 | 1.7 | 13.9 | 0.00 | 0.11 | 0.01 | 62 | 1013.4 |
| 20260510171536 | 72 | 250 | 1.7 | 14.8 | 0.00 | 0.11 | 0.01 | 61 | 1013.3 |
| 20260510170032 | 72 | 335 | 2.6 | 9.6 | 0.00 | 0.11 | 0.01 | 61 | 1013.3 |
| 20260510164533 | 72 | 258 | 3.5 | 10.4 | 0.00 | 0.13 | 0.01 | 58 | 1013.3 |
| 20260510163030 | 73 | 263 | 1.7 | 9.6 | 0.00 | 0.13 | 0.01 | 57 | 1013.2 |
| 20260510161529 | 73 | 135 | 1.7 | 6.1 | 0.00 | 0.13 | 0.01 | 57 | 1013.0 |
| 20260510160035 | 73 | 192 | 0.0 | 2.6 | 0.00 | 0.13 | 0.01 | 66 | 1013.0 |
| 20260510154528 | 71 | 19 | 0.9 | 2.6 | 0.00 | 0.16 | 0.01 | 72 | 1013.0 |
| 20260510153023 | 71 | 64 | 0.9 | 1.7 | 0.00 | 0.16 | 0.01 | 74 | 1013.0 |
| 20260510151520 | 69 | 337 | 0.9 | 1.7 | 0.00 | 0.16 | 0.01 | 80 | 1013.2 |
| 20260510150014 | 67 | 52 | 0.0 | 1.7 | 0.00 | 0.16 | 0.01 | 86 | 1013.0 |
| 20260510144515 | 65 | 28 | 0.0 | 3.5 | 0.00 | 0.16 | 0.01 | 91 | 1013.2 |
| 20260510143008 | 62 | 339 | 0.0 | 1.7 | 0.00 | 0.16 | 0.01 | 95 | 1013.1 |
| 20260510141502 | 61 | 284 | 0.0 | 0.9 | 0.00 | 0.16 | 0.01 | 96 | 1013.3 |
| 20260510134558 | 58 | 46 | 0.0 | 0.9 | 0.00 | 0.16 | 0.01 | 97 | 1013.3 |
| 20260510133053 | 57 | 342 | 0.0 | 0.9 | 0.00 | 0.16 | 0.01 | 98 | 1013.3 |
| 20260510131550 | 56 | 342 | 0.0 | 0.0 | 0.00 | 0.16 | 0.01 | 98 | 1013.2 |
| 20260510130049 | 56 | 317 | 0.0 | 0.9 | 0.00 | 0.16 | 0.01 | 98 | 1013.2 |
| 20260510124556 | 56 | 9 | 0.0 | 0.0 | 0.00 | 0.16 | 0.01 | 98 | 1013.2 |
| 20260510123046 | 55 | 9 | 0.0 | 0.9 | 0.00 | 0.16 | 0.01 | 98 | 1013.2 |
| 20260510121542 | 54 | 202 | 0.0 | 0.0 | 0.00 | 0.16 | 0.01 | 98 | 1013.0 |
| 20260510120038 | 53 | 260 | 0.0 | 0.0 | 0.00 | 0.16 | 0.01 | 98 | 1012.8 |
| 20260510114539 | 52 | 130 | 0.0 | 0.0 | 0.00 | 0.16 | 0.01 | 98 | 1012.5 |
| 20260510113033 | 51 | 108 | 0.0 | 0.9 | 0.00 | 0.16 | 0.01 | 98 | 1012.3 |
| 20260510111533 | 51 | 140 | 0.0 | 0.9 | 0.00 | 0.16 | 0.01 | 98 | 1012.1 |
| 20260510110030 | 51 | 204 | 0.0 | 0.9 | 0.00 | 0.16 | 0.01 | 98 | 1012.0 |
| 20260510104530 | 51 | 115 | 0.0 | 0.9 | 0.01 | 0.16 | 0.01 | 98 | 1012.1 |
| 20260510103028 | 51 | 115 | 0.0 | 0.0 | 0.01 | 0.16 | 0.01 | 98 | 1012.2 |
| 20260510101526 | 51 | 115 | 0.0 | 0.9 | 0.01 | 0.16 | 0.01 | 98 | 1012.1 |
| 20260510100025 | 51 | 115 | 0.0 | 0.9 | 0.01 | 0.16 | 0.01 | 98 | 1011.9 |
| 20260510094539 | 51 | 113 | 0.0 | 0.0 | 0.00 | 0.15 | 0.00 | 98 | 1011.5 |
| 20260510093024 | 51 | 113 | 0.0 | 0.9 | 0.00 | 0.15 | 0.00 | 98 | 1011.5 |
| 20260510091530 | 51 | 113 | 0.0 | 0.9 | 0.00 | 0.15 | 0.00 | 98 | 1011.4 |
| 20260510090023 | 51 | 113 | 0.0 | 0.0 | 0.00 | 0.15 | 0.00 | 98 | 1011.2 |
| 20260510084522 | 51 | 113 | 0.0 | 0.0 | 0.00 | 0.15 | 0.00 | 98 | 1011.3 |
| 20260510083032 | 51 | 113 | 0.0 | 1.7 | 0.00 | 0.15 | 0.00 | 98 | 1011.5 |
| 20260510081520 | 51 | 244 | 0.0 | 0.9 | 0.00 | 0.15 | 0.00 | 98 | 1011.4 |
| 20260510080025 | 51 | 251 | 0.0 | 1.7 | 0.00 | 0.15 | 0.00 | 98 | 1011.6 |
| 20260510074519 | 51 | 271 | 0.0 | 1.7 | 0.00 | 0.15 | 0.00 | 98 | 1011.5 |
| 20260510073021 | 51 | 319 | 0.0 | 0.9 | 0.00 | 0.15 | 0.00 | 98 | 1011.5 |
| 20260510071518 | 51 | 319 | 0.0 | 0.0 | 0.00 | 0.15 | 0.00 | 97 | 1010.8 |
| 20260510070016 | 51 | 319 | 0.0 | 0.0 | 0.00 | 0.15 | 0.00 | 98 | 1010.9 |
| 20260510064515 | 51 | 319 | 0.0 | 0.9 | 0.00 | 0.15 | 0.00 | 97 | 1011.0 |
| 20260510063017 | 51 | 133 | 0.0 | 1.7 | 0.00 | 0.15 | 0.00 | 97 | 1011.0 |
| 20260510061514 | 51 | 234 | 0.0 | 0.9 | 0.00 | 0.15 | 0.00 | 97 | 1010.8 |
| 20260510060030 | 51 | 234 | 0.0 | 0.9 | 0.00 | 0.15 | 0.00 | 98 | 1010.5 |
| 20260510054512 | 50 | 113 | 0.0 | 0.9 | 0.00 | 0.15 | 0.00 | 98 | 1010.6 |
| 20260510053009 | 50 | 113 | 0.0 | 0.0 | 0.00 | 0.15 | 0.00 | 98 | 1010.7 |
| 20260510051507 | 49 | 113 | 0.0 | 0.0 | 0.00 | 0.15 | 0.00 | 97 | 1010.8 |
| 20260510050007 | 48 | 113 | 0.0 | 0.0 | 0.00 | 0.15 | 0.00 | 97 | 1010.8 |
| 20260510044505 | 48 | 113 | 0.0 | 0.0 | 0.00 | 0.15 | 0.00 | 97 | 1010.9 |
| 20260510043004 | 48 | 113 | 0.0 | 0.0 | 0.00 | 0.15 | 0.00 | 97 | 1011.0 |
| 20260510041502 | 48 | 114 | 0.0 | 0.0 | 0.00 | 0.15 | 0.00 | 97 | 1011.0 |
| 20260510040059 | 49 | 113 | 0.0 | 0.0 | 0.00 | 0.15 | 0.00 | 97 | 1011.1 |
| 20260510034558 | 49 | 113 | 0.0 | 0.0 | 0.00 | 0.15 | 0.15 | 97 | 1011.1 |
| 20260510033109 | 49 | 114 | 0.0 | 0.0 | 0.00 | 0.15 | 0.15 | 97 | 1011.0 |
| 20260510031556 | 49 | 113 | 0.0 | 0.0 | 0.00 | 0.15 | 0.15 | 97 | 1011.0 |
| 20260510024556 | 50 | 113 | 0.0 | 0.0 | 0.00 | 0.15 | 0.15 | 96 | 1010.8 |
| 20260510023053 | 50 | 113 | 0.0 | 0.0 | 0.00 | 0.15 | 0.15 | 96 | 1010.8 |
| 20260510021558 | 51 | 114 | 0.0 | 0.0 | 0.00 | 0.15 | 0.15 | 96 | 1010.7 |
| 20260510020052 | 51 | 113 | 0.0 | 0.0 | 0.00 | 0.15 | 0.15 | 96 | 1010.5 |
| 20260510014553 | 52 | 113 | 0.0 | 0.0 | 0.00 | 0.15 | 0.15 | 96 | 1010.4 |
| 20260510013051 | 52 | 113 | 0.0 | 0.0 | 0.00 | 0.15 | 0.15 | 96 | 1010.4 |
| 20260510011550 | 53 | 113 | 0.0 | 0.0 | 0.00 | 0.15 | 0.15 | 96 | 1010.3 |
| 20260510010049 | 54 | 113 | 0.0 | 0.0 | 0.00 | 0.15 | 0.15 | 95 | 1010.2 |
| 20260510004551 | 54 | 113 | 0.0 | 0.0 | 0.00 | 0.15 | 0.15 | 95 | 1010.0 |
| 20260510003049 | 55 | 113 | 0.0 | 0.9 | 0.00 | 0.15 | 0.15 | 95 | 1009.8 |
| 20260510001548 | 55 | 113 | 0.0 | 0.9 | 0.00 | 0.15 | 0.15 | 94 | 1009.9 |
| 20260510000048 | 56 | 113 | 0.0 | 1.7 | 0.00 | 0.15 | 0.15 | 93 | 1009.6 |
| 20260509234550 | 57 | 123 | 0.0 | 2.6 | 0.00 | 0.15 | 0.15 | 93 | 1009.7 |
| 20260509233047 | 58 | 132 | 0.0 | 2.6 | 0.00 | 0.15 | 0.15 | 93 | 1009.7 |
| 20260509231547 | 58 | 111 | 0.0 | 2.6 | 0.00 | 0.15 | 0.15 | 94 | 1009.7 |
| 20260509230049 | 59 | 118 | 0.0 | 0.9 | 0.00 | 0.15 | 0.15 | 95 | 1009.7 |